Information on these data can be found in provided Readme document
Contact Info: Zachary Fasnacht (zachary.fasnacht@ssaihq.com); Nickolay Krotkov (nickolay.a.krotkov@nasa.gov); Lok Lamsal (lok.lamsal@nasa.gov)

FillValue: -999.
ScaleFactor: 1e15
Units: molecules/cm^2

Date(yyyy-mm-dd),City,Country,LonCenter,LatCenter,BoundingCoordinates,Median,Q1,Q3,Mean,Baseline_Median,Baseline_Q1,Baseline_Q3,Baseline_Mean,NumGoodSamples,NumTotalSamples
2015-01-01,Manchester,England,-2.2501,53.5001,[-2.7501 53.0001 -1.7501000000000002 54.0001],3.227,2.121,4.743,3.369,2.505,1.368,4.792,3.313,119.0,648.0
2015-01-02,Manchester,England,-2.2501,53.5001,[-2.7501 53.0001 -1.7501000000000002 54.0001],3.283,2.121,4.811,3.421,2.521,1.332,4.854,3.349,97.0,659.0
2015-01-03,Manchester,England,-2.2501,53.5001,[-2.7501 53.0001 -1.7501000000000002 54.0001],3.137,1.938,4.728,3.265,2.721,1.32,5.075,3.412,126.0,669.0
2015-01-04,Manchester,England,-2.2501,53.5001,[-2.7501 53.0001 -1.7501000000000002 54.0001],3.137,1.938,4.728,3.275,2.922,1.383,5.07,3.439,124.0,674.0
2015-01-05,Manchester,England,-2.2501,53.5001,[-2.7501 53.0001 -1.7501000000000002 54.0001],3.137,1.938,4.728,3.259,2.634,1.38,4.631,3.143,125.0,679.0
2015-01-06,Manchester,England,-2.2501,53.5001,[-2.7501 53.0001 -1.7501000000000002 54.0001],3.137,1.938,4.743,3.289,2.511,1.287,4.412,3.04,119.0,675.0
2015-01-07,Manchester,England,-2.2501,53.5001,[-2.7501 53.0001 -1.7501000000000002 54.0001],3.137,1.692,4.811,3.457,2.299,1.093,4.357,2.974,96.0,662.0
2015-01-08,Manchester,England,-2.2501,53.5001,[-2.7501 53.0001 -1.7501000000000002 54.0001],2.881,1.469,4.646,3.168,2.29,1.043,4.546,2.966,129.0,667.0
2015-01-09,Manchester,England,-2.2501,53.5001,[-2.7501 53.0001 -1.7501000000000002 54.0001],2.881,1.469,4.646,3.168,2.342,1.069,4.647,3.049,129.0,674.0
2015-01-10,Manchester,England,-2.2501,53.5001,[-2.7501 53.0001 -1.7501000000000002 54.0001],2.512,1.361,4.463,3.051,2.368,1.014,4.441,2.955,123.0,627.0
2015-01-11,Manchester,England,-2.2501,53.5001,[-2.7501 53.0001 -1.7501000000000002 54.0001],2.512,1.361,4.508,3.104,2.113,1.031,4.478,2.942,114.0,632.0
2015-01-12,Manchester,England,-2.2501,53.5001,[-2.7501 53.0001 -1.7501000000000002 54.0001],2.562,1.439,4.646,3.219,2.218,1.106,4.692,3.116,121.0,639.0
2015-01-13,Manchester,England,-2.2501,53.5001,[-2.7501 53.0001 -1.7501000000000002 54.0001],2.562,1.439,4.646,3.231,3.302,1.229,5.723,3.78,120.0,632.0
2015-01-14,Manchester,England,-2.2501,53.5001,[-2.7501 53.0001 -1.7501000000000002 54.0001],2.763,1.439,4.646,3.307,2.958,1.133,5.515,3.573,100.0,634.0
2015-01-15,Manchester,England,-2.2501,53.5001,[-2.7501 53.0001 -1.7501000000000002 54.0001],2.922,1.439,4.988,3.906,2.747,1.035,5.997,3.749,112.0,633.0
2015-01-16,Manchester,England,-2.2501,53.5001,[-2.7501 53.0001 -1.7501000000000002 54.0001],2.44,1.307,4.316,3.778,2.548,0.99,5.639,3.561,90.0,639.0
2015-01-17,Manchester,England,-2.2501,53.5001,[-2.7501 53.0001 -1.7501000000000002 54.0001],1.768,0.949,3.968,3.293,2.343,0.933,5.352,3.436,109.0,621.0
2015-01-18,Manchester,England,-2.2501,53.5001,[-2.7501 53.0001 -1.7501000000000002 54.0001],1.734,0.9,3.968,3.359,2.406,0.863,5.5,3.459,83.0,632.0
2015-01-19,Manchester,England,-2.2501,53.5001,[-2.7501 53.0001 -1.7501000000000002 54.0001],1.734,0.9,3.968,3.305,2.453,0.893,5.813,3.638,86.0,630.0
2015-01-20,Manchester,England,-2.2501,53.5001,[-2.7501 53.0001 -1.7501000000000002 54.0001],1.734,0.9,3.968,3.33,2.441,0.955,5.701,3.719,85.0,635.0
2015-01-21,Manchester,England,-2.2501,53.5001,[-2.7501 53.0001 -1.7501000000000002 54.0001],1.734,0.9,3.968,3.284,2.337,0.928,5.809,3.692,89.0,641.0
2015-01-22,Manchester,England,-2.2501,53.5001,[-2.7501 53.0001 -1.7501000000000002 54.0001],1.734,0.9,3.767,3.082,2.294,1.017,5.792,3.73,83.0,637.0
2015-01-23,Manchester,England,-2.2501,53.5001,[-2.7501 53.0001 -1.7501000000000002 54.0001],1.747,0.43,4.329,3.74,2.123,0.913,6.429,3.773,50.0,625.0
2015-01-24,Manchester,England,-2.2501,53.5001,[-2.7501 53.0001 -1.7501000000000002 54.0001],1.603,0.53,4.328,3.567,2.247,0.924,6.446,3.758,58.0,629.0
2015-01-25,Manchester,England,-2.2501,53.5001,[-2.7501 53.0001 -1.7501000000000002 54.0001],1.521,0.568,4.151,3.486,2.401,0.935,6.742,3.959,60.0,678.0
2015-01-26,Manchester,England,-2.2501,53.5001,[-2.7501 53.0001 -1.7501000000000002 54.0001],1.395,0.53,3.879,3.437,2.58,1.064,6.011,3.969,60.0,670.0
2015-01-27,Manchester,England,-2.2501,53.5001,[-2.7501 53.0001 -1.7501000000000002 54.0001],1.775,0.943,3.169,2.974,2.237,1.146,5.608,3.606,63.0,673.0
2015-01-28,Manchester,England,-2.2501,53.5001,[-2.7501 53.0001 -1.7501000000000002 54.0001],2.119,1.141,3.598,3.028,2.119,1.062,3.168,2.59,102.0,679.0
2015-01-29,Manchester,England,-2.2501,53.5001,[-2.7501 53.0001 -1.7501000000000002 54.0001],2.119,1.141,3.598,3.028,2.016,1.068,3.162,2.553,102.0,671.0
2015-01-30,Manchester,England,-2.2501,53.5001,[-2.7501 53.0001 -1.7501000000000002 54.0001],2.2,1.29,4.536,3.216,2.082,1.166,3.608,2.693,105.0,671.0
2015-01-31,Manchester,England,-2.2501,53.5001,[-2.7501 53.0001 -1.7501000000000002 54.0001],2.347,1.302,4.329,3.178,2.254,1.427,3.855,3.004,116.0,667.0
2015-02-01,Manchester,England,-2.2501,53.5001,[-2.7501 53.0001 -1.7501000000000002 54.0001],2.779,1.694,4.864,3.562,2.386,1.565,4.073,3.137,97.0,674.0
2015-02-02,Manchester,England,-2.2501,53.5001,[-2.7501 53.0001 -1.7501000000000002 54.0001],2.413,1.694,4.536,3.444,2.299,1.547,4.019,3.133,106.0,659.0
2015-02-03,Manchester,England,-2.2501,53.5001,[-2.7501 53.0001 -1.7501000000000002 54.0001],2.443,1.696,4.536,3.489,2.234,1.342,3.941,3.045,103.0,671.0
2015-02-04,Manchester,England,-2.2501,53.5001,[-2.7501 53.0001 -1.7501000000000002 54.0001],2.443,1.696,4.536,3.489,2.325,1.417,4.01,3.132,103.0,669.0
2015-02-05,Manchester,England,-2.2501,53.5001,[-2.7501 53.0001 -1.7501000000000002 54.0001],2.57,1.718,4.626,3.53,2.426,1.469,4.08,3.184,99.0,674.0
2015-02-06,Manchester,England,-2.2501,53.5001,[-2.7501 53.0001 -1.7501000000000002 54.0001],2.57,1.718,4.626,3.53,2.577,1.488,4.304,3.309,99.0,678.0
2015-02-07,Manchester,England,-2.2501,53.5001,[-2.7501 53.0001 -1.7501000000000002 54.0001],2.57,1.718,4.626,3.53,2.896,1.66,4.819,3.706,99.0,675.0
2015-02-08,Manchester,England,-2.2501,53.5001,[-2.7501 53.0001 -1.7501000000000002 54.0001],2.687,1.775,4.626,3.606,3.062,1.632,4.927,3.756,91.0,661.0
2015-02-09,Manchester,England,-2.2501,53.5001,[-2.7501 53.0001 -1.7501000000000002 54.0001],2.734,1.775,4.633,3.636,3.137,1.656,5.089,3.993,96.0,667.0
2015-02-10,Manchester,England,-2.2501,53.5001,[-2.7501 53.0001 -1.7501000000000002 54.0001],2.779,1.775,4.864,3.748,3.212,1.599,5.313,4.062,98.0,675.0
2015-02-11,Manchester,England,-2.2501,53.5001,[-2.7501 53.0001 -1.7501000000000002 54.0001],2.969,1.919,5.334,4.089,3.593,1.965,5.559,4.504,88.0,628.0
2015-02-12,Manchester,England,-2.2501,53.5001,[-2.7501 53.0001 -1.7501000000000002 54.0001],2.842,2.223,6.699,4.806,3.752,2.375,6.33,4.977,49.0,634.0
2015-02-13,Manchester,England,-2.2501,53.5001,[-2.7501 53.0001 -1.7501000000000002 54.0001],2.842,2.223,6.699,4.806,4.221,2.698,6.411,5.149,49.0,641.0
2015-02-14,Manchester,England,-2.2501,53.5001,[-2.7501 53.0001 -1.7501000000000002 54.0001],2.258,1.655,2.836,2.726,4.225,2.646,5.936,4.893,34.0,635.0
2015-02-15,Manchester,England,-2.2501,53.5001,[-2.7501 53.0001 -1.7501000000000002 54.0001],2.223,1.655,2.413,2.791,4.245,2.856,5.914,4.722,23.0,634.0
2015-02-16,Manchester,England,-2.2501,53.5001,[-2.7501 53.0001 -1.7501000000000002 54.0001],2.258,1.655,3.413,2.965,4.355,2.992,6.848,5.011,44.0,631.0
2015-02-17,Manchester,England,-2.2501,53.5001,[-2.7501 53.0001 -1.7501000000000002 54.0001],2.919,1.506,5.205,3.656,5.137,3.241,8.399,5.792,32.0,634.0
2015-02-18,Manchester,England,-2.2501,53.5001,[-2.7501 53.0001 -1.7501000000000002 54.0001],2.919,1.506,5.205,3.656,5.019,3.412,8.711,6.048,32.0,616.0
2015-02-19,Manchester,England,-2.2501,53.5001,[-2.7501 53.0001 -1.7501000000000002 54.0001],2.919,1.506,5.205,3.656,5.836,3.581,9.043,6.341,32.0,627.0
2015-02-20,Manchester,England,-2.2501,53.5001,[-2.7501 53.0001 -1.7501000000000002 54.0001],2.626,2.199,5.205,3.605,6.036,3.812,9.312,6.597,36.0,625.0
2015-02-21,Manchester,England,-2.2501,53.5001,[-2.7501 53.0001 -1.7501000000000002 54.0001],2.626,2.199,5.205,3.605,6.072,3.876,9.365,6.621,36.0,629.0
2015-02-22,Manchester,England,-2.2501,53.5001,[-2.7501 53.0001 -1.7501000000000002 54.0001],2.626,2.199,5.205,3.605,6.108,3.768,9.228,6.679,36.0,633.0
2015-02-23,Manchester,England,-2.2501,53.5001,[-2.7501 53.0001 -1.7501000000000002 54.0001],2.626,2.199,5.205,3.605,6.453,4.0,9.535,6.973,36.0,631.0
2015-02-24,Manchester,England,-2.2501,53.5001,[-2.7501 53.0001 -1.7501000000000002 54.0001],2.919,2.199,7.403,4.085,6.512,4.023,9.724,6.999,35.0,617.0
2015-02-25,Manchester,England,-2.2501,53.5001,[-2.7501 53.0001 -1.7501000000000002 54.0001],3.017,2.267,5.587,3.756,6.298,3.951,9.159,6.705,53.0,624.0
2015-02-26,Manchester,England,-2.2501,53.5001,[-2.7501 53.0001 -1.7501000000000002 54.0001],3.017,2.267,5.587,3.756,6.309,3.928,9.011,6.611,53.0,673.0
2015-02-27,Manchester,England,-2.2501,53.5001,[-2.7501 53.0001 -1.7501000000000002 54.0001],3.365,2.501,5.487,4.05,6.06,3.813,8.659,6.385,81.0,661.0
2015-02-28,Manchester,England,-2.2501,53.5001,[-2.7501 53.0001 -1.7501000000000002 54.0001],3.365,2.501,5.487,4.05,5.996,3.812,8.576,6.348,81.0,662.0
2015-03-01,Manchester,England,-2.2501,53.5001,[-2.7501 53.0001 -1.7501000000000002 54.0001],3.365,2.501,5.487,4.05,5.815,3.588,8.493,6.205,81.0,667.0
2015-03-02,Manchester,England,-2.2501,53.5001,[-2.7501 53.0001 -1.7501000000000002 54.0001],3.365,2.501,5.487,4.05,5.635,3.483,8.317,6.014,81.0,662.0
2015-03-03,Manchester,England,-2.2501,53.5001,[-2.7501 53.0001 -1.7501000000000002 54.0001],4.289,2.81,6.51,4.593,5.69,3.308,8.371,5.941,74.0,664.0
2015-03-04,Manchester,England,-2.2501,53.5001,[-2.7501 53.0001 -1.7501000000000002 54.0001],4.289,2.81,6.51,4.593,4.766,2.647,7.471,5.298,74.0,662.0
2015-03-05,Manchester,England,-2.2501,53.5001,[-2.7501 53.0001 -1.7501000000000002 54.0001],4.289,2.81,6.51,4.593,4.701,2.69,7.039,5.17,74.0,667.0
2015-03-06,Manchester,England,-2.2501,53.5001,[-2.7501 53.0001 -1.7501000000000002 54.0001],4.289,2.81,6.51,4.593,4.08,2.517,7.012,4.727,74.0,652.0
2015-03-07,Manchester,England,-2.2501,53.5001,[-2.7501 53.0001 -1.7501000000000002 54.0001],4.289,2.941,6.51,4.644,3.992,2.532,5.807,4.244,70.0,664.0
2015-03-08,Manchester,England,-2.2501,53.5001,[-2.7501 53.0001 -1.7501000000000002 54.0001],4.289,2.941,6.51,4.644,4.363,2.687,6.187,4.519,70.0,665.0
2015-03-09,Manchester,England,-2.2501,53.5001,[-2.7501 53.0001 -1.7501000000000002 54.0001],4.289,2.941,6.51,4.644,4.334,2.699,6.104,4.481,70.0,670.0
2015-03-10,Manchester,England,-2.2501,53.5001,[-2.7501 53.0001 -1.7501000000000002 54.0001],4.289,2.941,6.51,4.644,4.167,2.555,5.958,4.348,70.0,676.0
2015-03-11,Manchester,England,-2.2501,53.5001,[-2.7501 53.0001 -1.7501000000000002 54.0001],4.289,2.941,6.06,4.522,4.571,2.706,6.468,4.844,64.0,674.0
2015-03-12,Manchester,England,-2.2501,53.5001,[-2.7501 53.0001 -1.7501000000000002 54.0001],4.367,3.152,6.51,4.828,4.303,2.506,6.359,4.731,53.0,659.0
2015-03-13,Manchester,England,-2.2501,53.5001,[-2.7501 53.0001 -1.7501000000000002 54.0001],4.476,3.211,6.625,4.971,4.377,2.555,6.416,4.804,61.0,664.0
2015-03-14,Manchester,England,-2.2501,53.5001,[-2.7501 53.0001 -1.7501000000000002 54.0001],4.284,2.403,6.625,4.544,4.238,2.259,6.323,4.626,38.0,677.0
2015-03-15,Manchester,England,-2.2501,53.5001,[-2.7501 53.0001 -1.7501000000000002 54.0001],4.284,2.403,6.625,4.544,4.243,2.262,6.319,4.656,38.0,631.0
2015-03-16,Manchester,England,-2.2501,53.5001,[-2.7501 53.0001 -1.7501000000000002 54.0001],4.284,2.403,6.625,4.544,4.473,2.36,6.563,4.765,38.0,637.0
2015-03-17,Manchester,England,-2.2501,53.5001,[-2.7501 53.0001 -1.7501000000000002 54.0001],4.411,2.528,6.854,4.869,4.886,2.598,6.878,5.003,45.0,644.0
2015-03-18,Manchester,England,-2.2501,53.5001,[-2.7501 53.0001 -1.7501000000000002 54.0001],4.284,2.246,6.854,4.624,4.574,2.639,6.666,4.83,31.0,637.0
2015-03-19,Manchester,England,-2.2501,53.5001,[-2.7501 53.0001 -1.7501000000000002 54.0001],4.284,2.246,6.854,4.624,4.442,2.735,6.41,4.707,31.0,671.0
2015-03-20,Manchester,England,-2.2501,53.5001,[-2.7501 53.0001 -1.7501000000000002 54.0001],4.145,1.501,6.625,4.211,4.424,2.643,6.39,4.659,33.0,698.0
2015-03-21,Manchester,England,-2.2501,53.5001,[-2.7501 53.0001 -1.7501000000000002 54.0001],4.145,1.501,6.625,4.211,4.458,2.649,6.567,4.809,33.0,723.0
2015-03-22,Manchester,England,-2.2501,53.5001,[-2.7501 53.0001 -1.7501000000000002 54.0001],4.145,1.501,6.625,4.211,4.385,2.596,6.443,4.712,33.0,707.0
2015-03-23,Manchester,England,-2.2501,53.5001,[-2.7501 53.0001 -1.7501000000000002 54.0001],4.145,1.501,6.625,4.211,4.075,2.489,6.483,4.616,33.0,716.0
2015-03-24,Manchester,England,-2.2501,53.5001,[-2.7501 53.0001 -1.7501000000000002 54.0001],3.253,1.501,4.816,3.826,3.92,2.48,6.174,4.539,47.0,716.0
2015-03-25,Manchester,England,-2.2501,53.5001,[-2.7501 53.0001 -1.7501000000000002 54.0001],3.253,1.501,4.816,3.826,4.239,2.453,6.902,4.959,47.0,720.0
2015-03-26,Manchester,England,-2.2501,53.5001,[-2.7501 53.0001 -1.7501000000000002 54.0001],3.61,1.501,6.257,4.057,3.941,2.25,6.607,4.579,63.0,723.0
2015-03-27,Manchester,England,-2.2501,53.5001,[-2.7501 53.0001 -1.7501000000000002 54.0001],2.753,1.344,6.095,3.776,4.07,2.364,6.828,4.702,52.0,719.0
2015-03-28,Manchester,England,-2.2501,53.5001,[-2.7501 53.0001 -1.7501000000000002 54.0001],2.246,1.344,5.91,3.498,3.968,2.329,6.781,4.575,44.0,705.0
2015-03-29,Manchester,England,-2.2501,53.5001,[-2.7501 53.0001 -1.7501000000000002 54.0001],2.8,1.501,6.095,3.954,4.094,2.382,6.707,4.655,62.0,706.0
2015-03-30,Manchester,England,-2.2501,53.5001,[-2.7501 53.0001 -1.7501000000000002 54.0001],2.204,1.501,5.91,3.742,4.153,2.361,6.908,4.721,68.0,754.0
2015-03-31,Manchester,England,-2.2501,53.5001,[-2.7501 53.0001 -1.7501000000000002 54.0001],2.976,1.863,6.747,4.628,4.186,2.405,6.874,4.798,105.0,754.0
2015-04-01,Manchester,England,-2.2501,53.5001,[-2.7501 53.0001 -1.7501000000000002 54.0001],3.421,1.863,7.586,5.445,4.078,2.297,6.99,4.966,104.0,759.0
2015-04-02,Manchester,England,-2.2501,53.5001,[-2.7501 53.0001 -1.7501000000000002 54.0001],5.73,2.132,11.287,7.621,5.026,2.524,8.523,5.975,142.0,764.0
2015-04-03,Manchester,England,-2.2501,53.5001,[-2.7501 53.0001 -1.7501000000000002 54.0001],5.73,2.132,11.287,7.621,5.354,2.501,8.68,6.129,142.0,725.0
2015-04-04,Manchester,England,-2.2501,53.5001,[-2.7501 53.0001 -1.7501000000000002 54.0001],4.919,2.146,10.07,7.244,5.213,2.882,8.34,6.167,156.0,694.0
2015-04-05,Manchester,England,-2.2501,53.5001,[-2.7501 53.0001 -1.7501000000000002 54.0001],4.919,2.146,10.07,7.244,5.128,2.781,8.323,6.108,156.0,673.0
2015-04-06,Manchester,England,-2.2501,53.5001,[-2.7501 53.0001 -1.7501000000000002 54.0001],4.919,2.146,10.07,7.244,5.128,2.781,8.323,6.108,156.0,676.0
2015-04-07,Manchester,England,-2.2501,53.5001,[-2.7501 53.0001 -1.7501000000000002 54.0001],4.691,2.132,8.984,6.756,4.948,2.771,8.111,6.038,179.0,675.0
2015-04-08,Manchester,England,-2.2501,53.5001,[-2.7501 53.0001 -1.7501000000000002 54.0001],5.458,2.146,9.088,7.056,5.375,2.98,8.663,6.455,166.0,715.0
2015-04-09,Manchester,England,-2.2501,53.5001,[-2.7501 53.0001 -1.7501000000000002 54.0001],5.635,2.146,9.088,7.113,5.521,2.806,8.458,6.348,172.0,748.0
2015-04-10,Manchester,England,-2.2501,53.5001,[-2.7501 53.0001 -1.7501000000000002 54.0001],5.635,2.146,10.07,7.349,5.567,3.151,8.635,6.413,157.0,751.0
2015-04-11,Manchester,England,-2.2501,53.5001,[-2.7501 53.0001 -1.7501000000000002 54.0001],5.882,2.204,8.857,7.22,5.704,3.062,8.383,6.484,173.0,757.0
2015-04-12,Manchester,England,-2.2501,53.5001,[-2.7501 53.0001 -1.7501000000000002 54.0001],5.882,2.204,8.857,7.22,5.924,3.438,8.286,6.532,173.0,755.0
2015-04-13,Manchester,England,-2.2501,53.5001,[-2.7501 53.0001 -1.7501000000000002 54.0001],6.747,3.163,12.961,8.269,5.876,3.606,9.384,6.655,164.0,743.0
2015-04-14,Manchester,England,-2.2501,53.5001,[-2.7501 53.0001 -1.7501000000000002 54.0001],7.528,4.049,12.504,8.711,6.207,3.894,9.682,7.044,200.0,749.0
2015-04-15,Manchester,England,-2.2501,53.5001,[-2.7501 53.0001 -1.7501000000000002 54.0001],8.016,4.919,12.504,8.995,6.409,4.206,9.617,7.136,176.0,747.0
2015-04-16,Manchester,England,-2.2501,53.5001,[-2.7501 53.0001 -1.7501000000000002 54.0001],7.824,4.691,12.208,8.741,6.35,4.202,9.317,6.973,170.0,698.0
2015-04-17,Manchester,England,-2.2501,53.5001,[-2.7501 53.0001 -1.7501000000000002 54.0001],7.472,4.113,10.433,7.565,6.117,3.863,8.792,6.518,136.0,726.0
2015-04-18,Manchester,England,-2.2501,53.5001,[-2.7501 53.0001 -1.7501000000000002 54.0001],7.472,4.113,10.433,7.565,6.302,4.079,9.024,6.713,136.0,731.0
2015-04-19,Manchester,England,-2.2501,53.5001,[-2.7501 53.0001 -1.7501000000000002 54.0001],8.016,5.369,10.63,8.254,6.177,4.185,8.896,6.725,120.0,748.0
2015-04-20,Manchester,England,-2.2501,53.5001,[-2.7501 53.0001 -1.7501000000000002 54.0001],8.016,5.725,10.63,8.324,6.249,4.405,8.958,6.814,132.0,786.0
2015-04-21,Manchester,England,-2.2501,53.5001,[-2.7501 53.0001 -1.7501000000000002 54.0001],7.824,5.369,10.62,8.047,6.224,4.247,8.998,6.721,153.0,809.0
2015-04-22,Manchester,England,-2.2501,53.5001,[-2.7501 53.0001 -1.7501000000000002 54.0001],8.076,5.725,11.076,8.627,6.295,4.298,9.174,6.851,133.0,819.0
2015-04-23,Manchester,England,-2.2501,53.5001,[-2.7501 53.0001 -1.7501000000000002 54.0001],8.076,5.725,11.082,8.643,6.118,4.206,8.785,6.597,132.0,773.0
2015-04-24,Manchester,England,-2.2501,53.5001,[-2.7501 53.0001 -1.7501000000000002 54.0001],8.076,5.578,11.082,8.639,5.741,3.779,8.401,6.291,126.0,749.0
2015-04-25,Manchester,England,-2.2501,53.5001,[-2.7501 53.0001 -1.7501000000000002 54.0001],8.076,5.713,11.082,8.662,5.7,3.664,8.531,6.203,125.0,750.0
2015-04-26,Manchester,England,-2.2501,53.5001,[-2.7501 53.0001 -1.7501000000000002 54.0001],8.265,5.713,12.435,9.04,5.287,3.319,8.088,5.886,109.0,756.0
2015-04-27,Manchester,England,-2.2501,53.5001,[-2.7501 53.0001 -1.7501000000000002 54.0001],8.076,4.924,11.082,8.331,5.198,3.138,7.743,5.759,126.0,758.0
2015-04-28,Manchester,England,-2.2501,53.5001,[-2.7501 53.0001 -1.7501000000000002 54.0001],7.472,4.548,9.839,7.461,5.216,3.138,7.014,5.38,112.0,755.0
2015-04-29,Manchester,England,-2.2501,53.5001,[-2.7501 53.0001 -1.7501000000000002 54.0001],6.437,4.278,8.503,6.613,4.199,2.841,5.865,4.52,70.0,754.0
2015-04-30,Manchester,England,-2.2501,53.5001,[-2.7501 53.0001 -1.7501000000000002 54.0001],4.924,3.093,8.213,5.82,3.875,2.373,5.804,4.324,75.0,761.0
2015-05-01,Manchester,England,-2.2501,53.5001,[-2.7501 53.0001 -1.7501000000000002 54.0001],4.924,3.093,8.213,5.82,3.55,2.218,5.648,4.08,75.0,823.0
2015-05-02,Manchester,England,-2.2501,53.5001,[-2.7501 53.0001 -1.7501000000000002 54.0001],4.548,2.976,7.388,5.189,3.622,2.231,5.506,4.081,72.0,792.0
2015-05-03,Manchester,England,-2.2501,53.5001,[-2.7501 53.0001 -1.7501000000000002 54.0001],4.548,2.976,7.388,5.189,3.863,2.403,5.522,4.153,72.0,805.0
2015-05-04,Manchester,England,-2.2501,53.5001,[-2.7501 53.0001 -1.7501000000000002 54.0001],3.737,2.583,6.944,4.823,3.824,2.518,5.737,4.449,97.0,791.0
2015-05-05,Manchester,England,-2.2501,53.5001,[-2.7501 53.0001 -1.7501000000000002 54.0001],3.271,2.297,4.924,3.775,3.721,2.417,5.386,4.244,85.0,755.0
2015-05-06,Manchester,England,-2.2501,53.5001,[-2.7501 53.0001 -1.7501000000000002 54.0001],3.718,2.581,5.111,4.106,4.017,2.625,5.814,4.522,72.0,741.0
2015-05-07,Manchester,England,-2.2501,53.5001,[-2.7501 53.0001 -1.7501000000000002 54.0001],3.503,2.474,5.286,4.105,3.943,2.469,5.737,4.411,72.0,731.0
2015-05-08,Manchester,England,-2.2501,53.5001,[-2.7501 53.0001 -1.7501000000000002 54.0001],4.659,2.741,7.742,5.213,4.157,2.497,6.141,4.56,82.0,756.0
2015-05-09,Manchester,England,-2.2501,53.5001,[-2.7501 53.0001 -1.7501000000000002 54.0001],4.567,2.741,7.173,5.008,4.242,2.689,6.126,4.65,98.0,759.0
2015-05-10,Manchester,England,-2.2501,53.5001,[-2.7501 53.0001 -1.7501000000000002 54.0001],4.567,2.741,7.173,5.008,4.319,2.736,6.172,4.698,98.0,799.0
2015-05-11,Manchester,England,-2.2501,53.5001,[-2.7501 53.0001 -1.7501000000000002 54.0001],4.318,2.581,7.173,4.796,4.533,2.706,6.561,4.794,107.0,830.0
2015-05-12,Manchester,England,-2.2501,53.5001,[-2.7501 53.0001 -1.7501000000000002 54.0001],4.567,2.581,7.742,5.058,4.64,2.685,6.825,4.937,90.0,857.0
2015-05-13,Manchester,England,-2.2501,53.5001,[-2.7501 53.0001 -1.7501000000000002 54.0001],4.567,2.581,7.742,5.058,4.771,2.867,7.113,5.088,90.0,875.0
2015-05-14,Manchester,England,-2.2501,53.5001,[-2.7501 53.0001 -1.7501000000000002 54.0001],4.567,2.581,7.742,5.058,4.765,3.054,7.3,5.278,90.0,883.0
2015-05-15,Manchester,England,-2.2501,53.5001,[-2.7501 53.0001 -1.7501000000000002 54.0001],4.659,2.583,7.742,5.273,4.671,2.949,7.382,5.243,72.0,894.0
2015-05-16,Manchester,England,-2.2501,53.5001,[-2.7501 53.0001 -1.7501000000000002 54.0001],4.659,2.581,7.4,5.103,4.293,2.777,6.996,4.997,96.0,914.0
2015-05-17,Manchester,England,-2.2501,53.5001,[-2.7501 53.0001 -1.7501000000000002 54.0001],4.659,2.581,7.4,5.107,4.367,2.58,6.602,4.895,97.0,946.0
2015-05-18,Manchester,England,-2.2501,53.5001,[-2.7501 53.0001 -1.7501000000000002 54.0001],4.659,2.581,7.4,5.107,4.434,2.414,6.775,4.88,97.0,890.0
2015-05-19,Manchester,England,-2.2501,53.5001,[-2.7501 53.0001 -1.7501000000000002 54.0001],5.111,3.539,7.742,5.492,4.258,2.591,6.502,4.633,72.0,911.0
2015-05-20,Manchester,England,-2.2501,53.5001,[-2.7501 53.0001 -1.7501000000000002 54.0001],5.111,3.539,7.742,5.492,4.251,2.641,6.553,4.66,72.0,908.0
2015-05-21,Manchester,England,-2.2501,53.5001,[-2.7501 53.0001 -1.7501000000000002 54.0001],5.131,2.616,8.267,5.39,4.005,2.184,6.228,4.39,64.0,912.0
2015-05-22,Manchester,England,-2.2501,53.5001,[-2.7501 53.0001 -1.7501000000000002 54.0001],5.131,2.554,8.302,5.417,4.097,2.141,6.32,4.466,61.0,939.0
2015-05-23,Manchester,England,-2.2501,53.5001,[-2.7501 53.0001 -1.7501000000000002 54.0001],3.539,1.422,5.08,3.446,3.794,1.925,6.186,4.206,67.0,950.0
2015-05-24,Manchester,England,-2.2501,53.5001,[-2.7501 53.0001 -1.7501000000000002 54.0001],2.701,1.02,5.235,3.205,3.814,1.975,6.535,4.332,51.0,992.0
2015-05-25,Manchester,England,-2.2501,53.5001,[-2.7501 53.0001 -1.7501000000000002 54.0001],2.701,1.02,5.235,3.205,3.72,2.092,6.221,4.292,51.0,980.0
2015-05-26,Manchester,England,-2.2501,53.5001,[-2.7501 53.0001 -1.7501000000000002 54.0001],2.857,0.551,5.571,3.166,3.643,2.027,5.765,4.218,44.0,1009.0
2015-05-27,Manchester,England,-2.2501,53.5001,[-2.7501 53.0001 -1.7501000000000002 54.0001],2.688,0.67,4.334,2.725,3.516,1.883,5.312,3.841,69.0,1022.0
2015-05-28,Manchester,England,-2.2501,53.5001,[-2.7501 53.0001 -1.7501000000000002 54.0001],3.097,0.815,5.04,3.379,3.2,1.658,5.113,3.664,77.0,1056.0
2015-05-29,Manchester,England,-2.2501,53.5001,[-2.7501 53.0001 -1.7501000000000002 54.0001],3.176,0.815,4.522,3.335,3.07,1.496,4.816,3.374,84.0,1075.0
2015-05-30,Manchester,England,-2.2501,53.5001,[-2.7501 53.0001 -1.7501000000000002 54.0001],3.176,0.815,4.522,3.335,3.057,1.467,5.158,3.484,84.0,1092.0
2015-05-31,Manchester,England,-2.2501,53.5001,[-2.7501 53.0001 -1.7501000000000002 54.0001],2.425,0.815,4.107,2.659,2.935,1.503,5.158,3.356,73.0,1100.0
2015-06-01,Manchester,England,-2.2501,53.5001,[-2.7501 53.0001 -1.7501000000000002 54.0001],2.487,0.822,4.279,2.979,2.885,1.331,5.024,3.279,89.0,1128.0
2015-06-02,Manchester,England,-2.2501,53.5001,[-2.7501 53.0001 -1.7501000000000002 54.0001],2.487,0.822,4.279,2.979,2.592,1.27,5.077,3.211,89.0,1225.0
2015-06-03,Manchester,England,-2.2501,53.5001,[-2.7501 53.0001 -1.7501000000000002 54.0001],3.56,1.593,5.088,3.729,2.867,1.414,5.081,3.361,120.0,1255.0
2015-06-04,Manchester,England,-2.2501,53.5001,[-2.7501 53.0001 -1.7501000000000002 54.0001],4.342,2.036,6.044,4.286,3.221,1.576,5.554,3.645,131.0,1299.0
2015-06-05,Manchester,England,-2.2501,53.5001,[-2.7501 53.0001 -1.7501000000000002 54.0001],4.529,2.333,7.017,4.937,3.299,1.746,5.815,3.883,145.0,1322.0